[[{"header":{"parameterUnit":"m.s-1","parameterCategory":1,"la1":30.2991,"la2":30.254,"lo1":-89.0895,"lo2":-89.0444,"dy":0.0017,"dx":0.0017,"nx":28,"ny":28,"refTime":"2025-12-26T03:00:00:Z","depth":0,"parameterNumber":2,"parameterNumberName":"U-component_of_WINDS"},"data":[0,0,0,0,0,0,0,0,0,0,0,0,0,0,0,0,0,0,0,0,0,0,0,0,0,0,0,0,0,0,0,0,0,0,0,0,0,0,0,0,0,0,0,0,0,0,0,0,0,0,0,0,0,0,0,0,0,0,2.0784,2.0785,0,2.0857,2.0858,2.0859,2.083,2.0828,2.0827,2.0825,2.0904,2.0907,2.0911,0,0,0,0,0,0,0,0,0,0,0,0,0,2.0625,2.0628,2.0784,2.0785,2.0786,2.0857,2.0858,2.0859,2.083,2.0828,2.0826,2.0824,2.0903,2.0907,2.0911,0,0,0,0,0,0,0,0,0,0,0,0,0,2.0696,2.0629,2.0784,2.078,2.0781,2.0857,2.0858,2.0859,2.0831,2.0828,2.0826,2.0823,2.0901,2.0907,2.0912,2.0998,0,0,2.0929,2.0931,0,0,0,0,0,0,0,0,2.0692,2.0702,2.078,2.0781,2.0781,2.0832,2.0831,2.0906,2.0831,2.0812,2.0825,2.0822,2.0882,2.0889,2.0909,2.1001,2.1005,2.0929,2.0933,2.0935,2.0937,0,0,0,0,0,0,0,2.0687,2.0698,2.0813,2.0781,2.0782,2.0776,2.0784,2.0845,2.0861,2.0813,2.0811,2.082,2.0882,2.0903,2.091,2.1006,2.0929,2.0934,2.0938,2.094,2.1174,2.1176,0,0,0,0,0,0,2.0681,2.0695,2.0811,2.0815,2.0729,2.0781,2.0789,2.0818,2.086,2.0864,2.0822,2.0819,2.0895,2.0904,2.0913,2.1016,2.0935,2.094,2.0944,2.1171,2.1174,2.1177,0,0,0,0,0,0,2.0678,2.0692,2.0808,2.0754,2.0769,2.0787,2.0819,2.0821,2.0842,2.0867,2.087,2.0841,2.0893,2.0905,2.0977,2.1019,2.0943,2.0948,2.1167,2.1172,2.1176,2.1224,0,0,0,0,0,0,2.0674,2.0691,2.0723,2.0755,2.0772,2.0869,2.0822,2.0824,2.0851,2.0847,2.0885,2.0889,2.0892,2.0969,2.0982,2.1025,2.0952,2.1164,2.1169,2.1174,2.1219,2.1229,2.1238,0,0,0,0,0,2.0668,2.0734,2.0724,2.0739,2.0811,2.0872,2.0881,2.0883,2.0855,2.0887,2.0903,2.0887,2.1012,2.0976,2.0991,2.1036,2.1161,2.1168,2.1174,2.1214,2.1227,2.1238,0,0,0,0,0,0,2.0707,2.0738,2.0728,2.0806,2.0836,2.0867,2.0908,2.0897,2.0937,2.0931,2.0933,2.0942,2.1016,2.1033,2.0993,2.1122,2.1082,2.1092,2.1108,2.112,2.113,2.1125,2.0957,0,0,0,0,0,2.0725,2.077,2.0795,2.0862,2.0877,2.089,2.0916,2.0915,2.0947,2.096,2.0981,2.1014,2.1061,2.1091,2.1136,2.1221,2.1229,2.1259,2.1269,2.1277,2.1286,2.1333,2.1347,2.1199,2.1199,2.1199,0,0,2.0762,2.0784,2.0813,2.087,2.0893,2.0941,2.0901,2.0953,2.099,2.0969,2.1037,2.1054,2.1091,2.117,2.1206,2.1187,2.1329,2.1286,2.1292,2.1296,2.1341,2.1355,2.1368,2.1203,2.1202,2.1202,0,0,2.0854,2.0875,2.0933,2.0957,2.0992,2.1,2.1014,2.1047,2.1057,2.1125,2.1111,2.1154,2.1234,2.1261,2.1285,2.1388,2.1376,2.1403,2.1455,2.1501,2.1512,2.1523,2.156,2.1573,2.1411,2.1411,2.1411,0,2.0896,2.0966,2.0965,2.1018,2.1044,2.1026,2.1086,2.111,2.1159,2.1178,2.1155,2.1255,2.1279,2.1364,2.1389,2.1409,2.1426,2.1399,2.151,2.1521,2.1531,2.1566,2.158,2.1414,2.1414,2.1414,2.1413,0,2.1016,2.1065,2.1108,2.1154,2.1185,2.1242,2.125,2.1282,2.1278,2.1289,2.136,2.1388,2.1437,2.1457,2.1455,2.1543,2.153,2.1509,2.147,2.1548,2.1581,2.1595,2.1419,2.1418,2.1417,2.1416,0,0,2.1135,2.1179,2.1195,2.1216,2.1254,2.1293,2.1349,2.1396,2.1424,2.1458,2.1506,2.1574,2.1555,2.1583,2.1583,2.1623,2.1704,2.1597,2.1598,2.1617,2.1803,2.1819,2.1835,2.1695,2.1698,2.17,2.1801,0,2.123,2.1327,2.1328,2.1418,2.1464,2.1448,2.1497,2.1526,2.1538,2.158,2.1594,2.1642,2.1613,2.163,2.1669,2.1685,2.1741,2.1678,2.1741,2.1743,2.1733,2.1852,2.1869,2.1963,2.1814,2.1816,2.1817,0,2.1354,2.1391,2.1485,2.1517,2.1536,2.158,2.1624,2.1664,2.1697,2.1703,2.1734,2.1728,2.1787,2.1745,2.1827,2.1784,2.181,2.1822,2.1826,2.1833,2.1785,2.1863,2.1993,2.2007,2.1838,2.1836,2.1835,0,2.1432,2.1506,2.1571,2.159,2.1628,2.166,2.1677,2.1708,2.1737,2.1775,2.1794,2.184,2.1865,2.1901,2.1908,2.1877,2.1991,2.1949,2.1998,2.1998,2.2023,2.2022,2.216,2.2039,2.2039,2.2039,2.2038,0,2.1538,2.1597,2.1607,2.1648,2.1713,2.1714,2.1779,2.1795,2.1823,2.1867,2.1856,2.1898,2.1905,2.1949,2.1955,2.2023,2.2034,2.2042,2.2043,2.2043,2.2042,2.206,2.2054,2.2043,2.2042,2.2041,2.204,0,2.1636,2.1645,2.1716,2.1746,2.1755,2.1803,2.1829,2.1869,2.188,2.1936,2.195,2.1967,2.2019,2.2029,2.2091,2.2095,2.2175,2.2169,2.2163,2.2163,2.2211,2.2207,2.2366,2.2388,2.2253,2.2254,2.2255,0,2.1703,2.1748,2.1783,2.1811,2.183,2.1876,2.1905,2.1908,2.1939,2.1981,2.2016,2.2066,2.2106,2.219,2.2209,2.2256,2.2252,2.2304,2.2259,2.2258,2.2253,2.225,2.2255,2.2313,2.2315,2.2316,2.2317,0,2.1822,2.1825,2.1866,2.1909,2.1944,2.1978,2.2011,2.2035,2.2043,2.2079,2.213,2.2162,2.2224,2.2274,2.2321,2.2341,2.2331,2.2331,2.2345,2.2346,2.234,2.2344,2.2187,2.2327,2.2326,2.2326,2.2325,2.2325,2.1907,2.1946,2.1977,2.2024,2.2049,2.208,2.2118,2.2134,2.2177,2.2227,2.2227,2.2284,2.2317,2.2379,2.2402,2.2447,2.2431,2.2451,2.2456,2.2461,2.2466,2.2333,2.2456,2.2456,2.2455,2.2455,2.2455,0,2.2026,2.2045,2.2088,2.2134,2.2171,2.2156,2.2192,2.2225,2.2275,2.2306,2.2346,2.2406,2.2455,2.2478,2.2526,2.2558,2.2555,2.2571,2.2569,2.2574,2.2478,2.2461,2.2573,2.2573,2.2573,2.2573,2.2573,2.2573,2.2092,2.2157,2.2164,2.2242,2.2261,2.2315,2.2337,2.2366,2.2391,2.2459,2.2499,2.2513,2.2541,2.2592,2.2637,2.2642,2.2661,2.2679,2.2683,2.2593,2.2581,2.2569,2.2553,2.2683,2.2683,2.2775,2.2776,2.2777]},{"header":{"parameterUnit":"m.s-1","parameterCategory":1,"la1":30.2991,"la2":30.254,"lo1":-89.0895,"lo2":-89.0444,"dy":0.0017,"dx":0.0017,"nx":28,"ny":28,"refTime":"2025-12-26T03:00:00:Z","depth":0,"parameterNumber":3,"parameterNumberName":"V-component_of_WINDS"},"data":[0,0,0,0,0,0,0,0,0,0,0,0,0,0,0,0,0,0,0,0,0,0,0,0,0,0,0,0,0,0,0,0,0,0,0,0,0,0,0,0,0,0,0,0,0,0,0,0,0,0,0,0,0,0,0,0,0,0,3.2994,3.2996,0,3.316,3.3162,3.3164,3.3178,3.3177,3.3175,3.3173,3.3345,3.3351,3.3358,0,0,0,0,0,0,0,0,0,0,0,0,0,3.2691,3.2697,3.2994,3.2996,3.2998,3.316,3.3162,3.3164,3.3179,3.3177,3.3174,3.3172,3.3343,3.3351,3.3358,0,0,0,0,0,0,0,0,0,0,0,0,0,3.2836,3.2698,3.2993,3.3025,3.3029,3.3159,3.3162,3.3165,3.3179,3.3177,3.3174,3.3171,3.3341,3.335,3.3359,3.347,0,0,3.3388,3.3392,0,0,0,0,0,0,0,0,3.2828,3.2848,3.3018,3.3023,3.3028,3.3146,3.3118,3.3267,3.318,3.3122,3.3173,3.317,3.3281,3.3295,3.3332,3.3478,3.3486,3.3389,3.3394,3.3398,3.3401,0,0,0,0,0,0,0,3.2818,3.284,3.306,3.302,3.3026,3.3031,3.3049,3.3147,3.3215,3.3127,3.3129,3.3148,3.3283,3.3323,3.3337,3.3488,3.3388,3.3397,3.3402,3.3406,3.3736,3.3739,0,0,0,0,0,0,3.2802,3.2832,3.3054,3.3065,3.2919,3.3039,3.3058,3.3111,3.3214,3.3227,3.315,3.3148,3.3309,3.3326,3.3343,3.3481,3.3398,3.3407,3.3412,3.3733,3.3736,3.374,0,0,0,0,0,0,3.2795,3.2821,3.3048,3.2949,3.2978,3.3047,3.3105,3.3115,3.3155,3.3231,3.3243,3.3178,3.3307,3.3329,3.3439,3.3487,3.3411,3.342,3.3729,3.3734,3.3738,3.3758,0,0,0,0,0,0,3.2786,3.2819,3.2861,3.295,3.2983,3.314,3.3108,3.312,3.3171,3.317,3.3261,3.3273,3.3307,3.3425,3.3448,3.3499,3.3427,3.3725,3.3731,3.3737,3.3754,3.3763,3.3771,0,0,0,0,0,3.2776,3.2861,3.2864,3.289,3.3037,3.3143,3.3162,3.3199,3.3175,3.3219,3.3268,3.327,3.3478,3.3436,3.3462,3.3517,3.3722,3.3729,3.3736,3.375,3.3761,3.3771,0,0,0,0,0,0,3.2777,3.2873,3.2877,3.2993,3.306,3.3145,3.3202,3.321,3.3285,3.3281,3.3323,3.3344,3.3452,3.3495,3.3446,3.363,3.3597,3.361,3.3599,3.361,3.3619,3.3608,3.3435,0,0,0,0,0,3.279,3.2868,3.2947,3.3042,3.3075,3.3133,3.318,3.3202,3.3273,3.3302,3.3359,3.3428,3.3509,3.3562,3.364,3.3759,3.378,3.381,3.3818,3.3825,3.3837,3.3904,3.3919,3.3763,3.3763,3.3763,0,0,3.282,3.2882,3.2928,3.3044,3.3098,3.3178,3.3156,3.3241,3.3302,3.3315,3.3422,3.3466,3.3547,3.3662,3.3715,3.3701,3.3884,3.3834,3.3839,3.3847,3.3913,3.3928,3.3941,3.3768,3.3767,3.3766,0,0,3.2915,3.2968,3.3054,3.3109,3.3191,3.3229,3.3249,3.3334,3.3364,3.3472,3.3484,3.3556,3.3694,3.3752,3.3799,3.3916,3.3922,3.394,3.3987,3.4052,3.4065,3.4076,3.412,3.4135,3.395,3.395,3.395,0,3.2941,3.3062,3.3097,3.3183,3.3234,3.3249,3.3337,3.3388,3.3492,3.3528,3.351,3.3684,3.3739,3.3869,3.3898,3.3934,3.3961,3.3931,3.406,3.4072,3.4083,3.4125,3.4141,3.3952,3.3952,3.3952,3.3951,0,3.3091,3.3174,3.3233,3.3334,3.3391,3.3477,3.3527,3.3581,3.3598,3.3638,3.3748,3.3815,3.3908,3.394,3.3957,3.4073,3.4061,3.4051,3.4019,3.4099,3.4139,3.4156,3.3955,3.3954,3.3953,3.3953,0,0,3.3193,3.3311,3.3333,3.3379,3.3471,3.3537,3.3623,3.3714,3.3761,3.3832,3.3907,3.4024,3.4015,3.4069,3.4093,3.415,3.4241,3.4133,3.4136,3.4153,3.4374,3.4383,3.4401,3.4244,3.4248,3.425,3.4368,0,3.3299,3.3455,3.3489,3.3624,3.3702,3.3717,3.3793,3.3859,3.3898,3.3971,3.4014,3.4097,3.4078,3.4111,3.4168,3.4218,3.4286,3.4209,3.4317,3.432,3.4299,3.4422,3.4432,3.454,3.4384,3.4387,3.4389,0,3.3445,3.352,3.3662,3.3745,3.3779,3.3847,3.3934,3.4002,3.4077,3.4102,3.4162,3.418,3.4272,3.4234,3.4363,3.4309,3.4355,3.4386,3.4391,3.4405,3.4361,3.4441,3.4576,3.4593,3.4414,3.4412,3.441,0,3.3508,3.3644,3.3747,3.3786,3.3884,3.3932,3.3975,3.4047,3.41,3.4175,3.421,3.4295,3.4343,3.4409,3.445,3.4418,3.4576,3.4541,3.4601,3.46,3.4636,3.4634,3.4782,3.4661,3.4661,3.466,3.466,0,3.3625,3.3712,3.3777,3.384,3.3938,3.3977,3.4074,3.4117,3.4181,3.4254,3.4272,3.434,3.4389,3.4464,3.4497,3.46,3.462,3.4644,3.4652,3.4644,3.4642,3.4677,3.4671,3.4665,3.4664,3.4663,3.4662,0,3.3713,3.3759,3.3873,3.3957,3.398,3.4049,3.4121,3.4184,3.4223,3.4316,3.434,3.4402,3.4492,3.4539,3.4651,3.4673,3.4789,3.4792,3.4764,3.4768,3.4827,3.4822,3.5005,3.5032,3.4891,3.4892,3.4893,0,3.3786,3.3853,3.3944,3.3995,3.4039,3.4119,3.4173,3.4214,3.427,3.436,3.4412,3.4503,3.4578,3.4721,3.4777,3.4863,3.4869,3.4927,3.4882,3.4873,3.4873,3.487,3.4878,3.4936,3.4937,3.4938,3.4939,0,3.3911,3.3931,3.4008,3.4093,3.4157,3.4226,3.4294,3.4334,3.4386,3.4448,3.454,3.4598,3.4713,3.4803,3.4894,3.4939,3.4949,3.4953,3.4972,3.4966,3.4948,3.4961,3.4789,3.4949,3.4948,3.4947,3.4947,3.4946,3.3996,3.4057,3.4131,3.4217,3.4272,3.4336,3.4399,3.4447,3.4524,3.462,3.4639,3.4737,3.4811,3.4934,3.4982,3.506,3.5048,3.5075,3.5082,3.5089,3.5093,3.4933,3.5076,3.5076,3.5076,3.5076,3.5075,0,3.4124,3.4173,3.4251,3.4346,3.4413,3.4415,3.4491,3.4547,3.4633,3.4701,3.4774,3.4881,3.4969,3.5031,3.5121,3.5172,3.5178,3.5194,3.5192,3.5203,3.5097,3.5073,3.5187,3.5187,3.5187,3.5187,3.5187,3.5187,3.4199,3.4304,3.4332,3.4465,3.4512,3.4608,3.4652,3.4711,3.4766,3.4884,3.4957,3.4997,3.5063,3.5158,3.5239,3.5255,3.5289,3.5304,3.5321,3.5222,3.521,3.5199,3.5177,3.5311,3.5311,3.5421,3.5422,3.5423]}]]